Location: Bemmer
(51.5498°N, 5.6249°E)
Time: 01:17:04
(UTC+00:00)

H-2A R/B - Pass Details

Date: 03 March 2021
Orbit: 732 x 837 km, 98.2° (Epoch: 13 April)

Event Time Altitude Azimuth Distance (km) Brightness Sun altitude
Rises 18:01:49 0° 162° (SSE) 3,371 5.2 -7.0°
Reaches altitude 10° 18:04:10 10° 162° (SSE) 2,445 4.4 -7.4°
Maximum altitude 18:09:37 87° 76° (ENE) 847 2.2 -8.3°
Drops below altitude 10° 18:15:06 10° 346° (NNW) 2,453 4.8 -9.1°
Sets 18:17:27 0° 346° (NNW) 3,383 5.5 -9.5°
